[[{"header":{"parameterUnit":"m.s-1","parameterCategory":1,"la1":30.2991,"la2":30.254,"lo1":-89.0895,"lo2":-89.0444,"dy":0.0017,"dx":0.0017,"nx":28,"ny":28,"refTime":"2023-08-09T09:00:00:Z","depth":0,"parameterNumber":2,"parameterNumberName":"U-component_of_WINDS"},"data":[0,0,0,0,0,0,0,0,0,0,0,0,0,0,0,0,0,0,0,0,0,0,0,0,0,0,0,0,0,0,0,0,0,0,0,0,0,0,0,0,0,0,0,0,0,0,0,0,0,0,0,0,0,0,0,0,0,0,3.7765,3.7766,0,3.7864,3.7865,3.7867,3.7836,3.7834,3.7832,3.783,3.793,3.7935,3.7939,0,0,0,0,0,0,0,0,0,0,0,0,0,3.7547,3.7551,3.7765,3.7766,3.7767,3.7864,3.7865,3.7867,3.7837,3.7834,3.7832,3.7829,3.7929,3.7934,3.794,0,0,0,0,0,0,0,0,0,0,0,0,0,3.7643,3.7552,3.7765,3.7764,3.7765,3.7864,3.7866,3.7867,3.7837,3.7834,3.7831,3.7828,3.7927,3.7934,3.794,3.8045,0,0,3.7961,3.7964,0,0,0,0,0,0,0,0,3.7638,3.7651,3.7763,3.7764,3.7765,3.7835,3.7825,3.7927,3.7838,3.781,3.783,3.7827,3.7901,3.791,3.7935,3.805,3.8054,3.7962,3.7966,3.7969,3.7971,0,0,0,0,0,0,0,3.7631,3.7647,3.7804,3.7765,3.7766,3.7758,3.7768,3.7844,3.7871,3.7812,3.781,3.7822,3.7901,3.7929,3.7937,3.8056,3.7962,3.7968,3.7972,3.7975,3.8259,3.8263,0,0,0,0,0,0,3.7624,3.7641,3.7801,3.7807,3.7693,3.7764,3.7776,3.7816,3.7871,3.7876,3.7825,3.7821,3.7918,3.7929,3.7941,3.8065,3.7969,3.7976,3.798,3.8256,3.826,3.8264,0,0,0,0,0,0,3.7619,3.7638,3.7797,3.7724,3.7743,3.7772,3.7816,3.7819,3.7847,3.788,3.7885,3.7848,3.7916,3.7931,3.8019,3.8068,3.7979,3.7985,3.8252,3.8257,3.8262,3.8316,0,0,0,0,0,0,3.7613,3.7637,3.7678,3.7725,3.7747,3.7875,3.7819,3.7823,3.7859,3.7854,3.7903,3.7909,3.7915,3.8009,3.8026,3.8076,3.799,3.8248,3.8254,3.826,3.831,3.8322,3.8333,0,0,0,0,0,3.7605,3.7689,3.768,3.7699,3.7799,3.7878,3.789,3.7896,3.7863,3.7904,3.7925,3.7907,3.8061,3.8018,3.8037,3.809,3.8245,3.8253,3.826,3.8305,3.832,3.8333,0,0,0,0,0,0,3.7646,3.7695,3.7686,3.7787,3.7828,3.7872,3.7923,3.7913,3.7964,3.7957,3.7962,3.7974,3.8063,3.8086,3.8038,3.8193,3.8148,3.8159,3.8175,3.819,3.8201,3.8192,3.7996,0,0,0,0,0,3.7667,3.7727,3.7767,3.7852,3.7874,3.7895,3.793,3.7931,3.7974,3.7991,3.8019,3.806,3.8118,3.8155,3.821,3.8314,3.8323,3.8359,3.8371,3.838,3.8389,3.8444,3.846,3.8289,3.8289,3.8289,0,0,3.771,3.7745,3.7782,3.7861,3.7894,3.7955,3.791,3.7977,3.8022,3.8001,3.8085,3.8107,3.8154,3.825,3.8293,3.8271,3.8439,3.839,3.8397,3.8401,3.8453,3.8469,3.8484,3.8294,3.8294,3.8293,0,0,3.782,3.7853,3.7927,3.796,3.801,3.8024,3.8041,3.8087,3.8101,3.8186,3.8171,3.8224,3.8324,3.8357,3.8387,3.8509,3.8494,3.8527,3.8586,3.8639,3.8652,3.8664,3.8705,3.872,3.8537,3.8537,3.8537,0,3.7867,3.796,3.7966,3.8034,3.8069,3.8053,3.8127,3.8159,3.8224,3.8247,3.8222,3.8345,3.8376,3.8478,3.8508,3.8534,3.8552,3.852,3.865,3.8662,3.8673,3.8712,3.8728,3.8541,3.854,3.854,3.854,0,3.8014,3.8079,3.8132,3.8195,3.8236,3.8306,3.8323,3.8363,3.8361,3.8377,3.8463,3.8499,3.856,3.8585,3.8584,3.8687,3.8672,3.8649,3.8602,3.8693,3.873,3.8745,3.8546,3.8545,3.8544,3.8543,0,0,3.8151,3.8217,3.8236,3.8263,3.8317,3.8366,3.8436,3.8496,3.8529,3.8575,3.8631,3.8716,3.8695,3.8729,3.8731,3.8778,3.887,3.8749,3.875,3.8768,3.8983,3.8997,3.9015,3.8861,3.8864,3.8866,3.8978,0,3.8263,3.8386,3.8393,3.8504,3.8562,3.8548,3.8608,3.8647,3.8664,3.8715,3.8734,3.8793,3.8762,3.8782,3.8828,3.8849,3.8912,3.8841,3.8912,3.8914,3.8898,3.9034,3.9051,3.9154,3.8992,3.8995,3.8997,0,3.841,3.8459,3.8576,3.8619,3.8644,3.8698,3.8753,3.8803,3.8846,3.8855,3.8893,3.8889,3.8959,3.8912,3.9008,3.8959,3.8989,3.9004,3.9008,3.9012,3.8959,3.904,3.9188,3.9202,3.902,3.9018,3.9016,0,3.8494,3.8591,3.8672,3.8696,3.875,3.8788,3.8812,3.8852,3.8888,3.8936,3.8958,3.9014,3.9044,3.9087,3.9097,3.9063,3.9192,3.9147,3.92,3.9199,3.9225,3.9223,3.9377,3.925,3.9249,3.9249,3.9249,0,3.8617,3.8688,3.871,3.876,3.8838,3.8847,3.8924,3.8946,3.8982,3.9034,3.9027,3.9076,3.9089,3.9141,3.915,3.9226,3.924,3.9248,3.9249,3.9247,3.9246,3.9265,3.9257,3.9253,3.9252,3.9251,3.9251,0,3.8724,3.8742,3.8829,3.8873,3.8886,3.8941,3.8978,3.9025,3.9042,3.9109,3.9125,3.915,3.9211,3.9226,3.9299,3.9305,3.9394,3.939,3.9379,3.9378,3.9429,3.9423,3.9598,3.962,3.9481,3.9482,3.9483,0,3.8799,3.8853,3.8903,3.8938,3.8964,3.902,3.9056,3.9067,3.9104,3.9157,3.9197,3.9257,3.9305,3.9402,3.9426,3.9481,3.9476,3.9534,3.9484,3.948,3.9473,3.9469,3.9473,3.9542,3.9544,3.9545,3.9546,0,3.8931,3.8937,3.8989,3.9044,3.9087,3.9131,3.9173,3.9202,3.9218,3.926,3.9322,3.9359,3.9433,3.9491,3.9546,3.957,3.956,3.9562,3.9576,3.9573,3.9564,3.9567,3.9401,3.9557,3.9556,3.9555,3.9554,3.9554,3.9022,3.9069,3.9111,3.9168,3.9201,3.924,3.9286,3.9308,3.936,3.942,3.9424,3.949,3.9531,3.9605,3.9632,3.9683,3.9665,3.9688,3.9692,3.9697,3.97,3.9558,3.9694,3.9693,3.9693,3.9693,3.9693,0,3.9151,3.9177,3.923,3.9289,3.9334,3.9322,3.9368,3.9406,3.9464,3.9504,3.9551,3.9621,3.9678,3.9707,3.9763,3.9798,3.9795,3.9812,3.9808,3.9813,3.9714,3.9694,3.9814,3.9814,3.9814,3.9814,3.9814,3.9814,3.9223,3.93,3.9311,3.9404,3.943,3.9495,3.9521,3.9557,3.9588,3.9667,3.9714,3.9733,3.9767,3.9826,3.9877,3.9884,3.9903,3.9923,3.9927,3.9833,3.9821,3.9809,3.979,3.9928,3.9928,4.0022,4.0022,4.0023]},{"header":{"parameterUnit":"m.s-1","parameterCategory":1,"la1":30.2991,"la2":30.254,"lo1":-89.0895,"lo2":-89.0444,"dy":0.0017,"dx":0.0017,"nx":28,"ny":28,"refTime":"2023-08-09T09:00:00:Z","depth":0,"parameterNumber":3,"parameterNumberName":"V-component_of_WINDS"},"data":[0,0,0,0,0,0,0,0,0,0,0,0,0,0,0,0,0,0,0,0,0,0,0,0,0,0,0,0,0,0,0,0,0,0,0,0,0,0,0,0,0,0,0,0,0,0,0,0,0,0,0,0,0,0,0,0,0,0,1.825,1.8251,0,1.8386,1.8387,1.8389,1.8398,1.8397,1.8395,1.8394,1.8532,1.8537,1.8542,0,0,0,0,0,0,0,0,0,0,0,0,0,1.7996,1.8001,1.825,1.8251,1.8253,1.8386,1.8387,1.8389,1.8399,1.8397,1.8395,1.8393,1.8531,1.8537,1.8543,0,0,0,0,0,0,0,0,0,0,0,0,0,1.8117,1.8002,1.8249,1.8274,1.8277,1.8385,1.8387,1.839,1.8399,1.8397,1.8395,1.8392,1.8529,1.8536,1.8544,1.8636,0,0,1.8567,1.857,0,0,0,0,0,0,0,0,1.811,1.8126,1.8268,1.8272,1.8276,1.8373,1.8349,1.8472,1.84,1.8353,1.8394,1.8391,1.8481,1.8492,1.8523,1.8643,1.8648,1.8568,1.8572,1.8576,1.8578,0,0,0,0,0,0,0,1.8101,1.812,1.8303,1.827,1.8275,1.8277,1.8292,1.8372,1.8428,1.8357,1.8358,1.8374,1.8483,1.8515,1.8526,1.8651,1.8567,1.8574,1.8579,1.8582,1.8852,1.8854,0,0,0,0,0,0,1.8088,1.8113,1.8299,1.8308,1.8186,1.8284,1.83,1.8344,1.8427,1.8438,1.8376,1.8374,1.8504,1.8517,1.8531,1.8645,1.8575,1.8583,1.8587,1.8849,1.8852,1.8855,0,0,0,0,0,0,1.8083,1.8105,1.8294,1.8211,1.8235,1.829,1.834,1.8348,1.8381,1.8441,1.8451,1.8399,1.8502,1.852,1.861,1.865,1.8586,1.8593,1.8846,1.885,1.8854,1.8872,0,0,0,0,0,0,1.8076,1.8103,1.8139,1.8211,1.8239,1.8371,1.8342,1.8352,1.8394,1.8393,1.8466,1.8476,1.8502,1.8598,1.8617,1.8659,1.8599,1.8843,1.8848,1.8852,1.8868,1.8876,1.8883,0,0,0,0,0,1.8067,1.8139,1.8141,1.8164,1.8286,1.8373,1.8389,1.8418,1.8397,1.8434,1.8472,1.8473,1.8642,1.8607,1.8629,1.8673,1.884,1.8846,1.8852,1.8865,1.8875,1.8883,0,0,0,0,0,0,1.807,1.8149,1.8152,1.825,1.8305,1.8375,1.8422,1.8427,1.8489,1.8485,1.8518,1.8534,1.8622,1.8657,1.8617,1.8767,1.8739,1.8749,1.8741,1.8751,1.8758,1.8748,1.8605,0,0,0,0,0,1.8083,1.8147,1.8212,1.8293,1.832,1.8366,1.8405,1.8422,1.848,1.8503,1.8549,1.8604,1.8669,1.8712,1.8775,1.8873,1.8889,1.8914,1.8921,1.8927,1.8936,1.8989,1.9001,1.8874,1.8874,1.8874,0,0,1.8109,1.816,1.8199,1.8295,1.8339,1.8405,1.8385,1.8456,1.8505,1.8514,1.8601,1.8636,1.87,1.8794,1.8837,1.8825,1.8974,1.8934,1.8938,1.8944,1.8996,1.9008,1.9019,1.8878,1.8877,1.8877,0,0,1.819,1.8235,1.8307,1.8351,1.8419,1.8449,1.8465,1.8534,1.8558,1.8646,1.8654,1.8712,1.8824,1.8869,1.8907,1.9003,1.9006,1.9023,1.9062,1.9113,1.9123,1.9132,1.9166,1.9178,1.9031,1.9031,1.9031,0,1.8214,1.8314,1.8343,1.8413,1.8455,1.8466,1.8538,1.858,1.8664,1.8692,1.8677,1.8817,1.8861,1.8965,1.8989,1.9019,1.9039,1.9015,1.9119,1.9129,1.9138,1.9171,1.9184,1.9033,1.9033,1.9032,1.9032,0,1.834,1.8409,1.8458,1.854,1.8587,1.8658,1.8697,1.8741,1.8753,1.8784,1.8873,1.8926,1.9,1.9026,1.9039,1.9132,1.9122,1.9113,1.9086,1.9151,1.9182,1.9195,1.9035,1.9034,1.9034,1.9034,0,0,1.8429,1.8524,1.8542,1.8579,1.8653,1.8707,1.8777,1.885,1.8887,1.8944,1.9004,1.9098,1.9089,1.9132,1.915,1.9195,1.9268,1.918,1.9182,1.9195,1.9372,1.9379,1.9394,1.927,1.9272,1.9274,1.9367,0,1.8519,1.8646,1.8673,1.8783,1.8846,1.8856,1.8918,1.897,1.9,1.9058,1.9091,1.9157,1.9141,1.9167,1.9212,1.9249,1.9304,1.9243,1.9325,1.9328,1.931,1.941,1.9418,1.9504,1.938,1.9382,1.9383,0,1.8641,1.8701,1.8817,1.8882,1.891,1.8965,1.9033,1.9088,1.9146,1.9165,1.9212,1.9225,1.9298,1.9266,1.9367,1.9325,1.936,1.9383,1.9387,1.9396,1.936,1.9423,1.9532,1.9544,1.9403,1.9401,1.94,0,1.8695,1.8805,1.8888,1.8919,1.8997,1.9035,1.9069,1.9125,1.9166,1.9225,1.9253,1.9319,1.9356,1.9406,1.9436,1.9411,1.9535,1.9506,1.9552,1.9551,1.9579,1.9577,1.9695,1.96,1.96,1.96,1.9599,0,1.8793,1.8863,1.8913,1.8965,1.9043,1.9073,1.915,1.9184,1.9233,1.9291,1.9303,1.9356,1.9392,1.9451,1.9474,1.9554,1.957,1.9587,1.9593,1.9587,1.9584,1.9611,1.9606,1.9603,1.9602,1.9602,1.9601,0,1.8867,1.8903,1.8995,1.906,1.9078,1.9133,1.9189,1.9239,1.9269,1.9341,1.936,1.9407,1.9476,1.951,1.9596,1.9612,1.9702,1.9704,1.9683,1.9685,1.973,1.9725,1.987,1.989,1.9781,1.9782,1.9783,0,1.8928,1.8982,1.9053,1.9093,1.9127,1.9191,1.9233,1.9264,1.9307,1.9377,1.9418,1.9487,1.9545,1.9655,1.9696,1.9761,1.9765,1.9811,1.9775,1.9767,1.9766,1.9763,1.9768,1.9818,1.9819,1.982,1.982,0,1.9031,1.9046,1.9107,1.9174,1.9223,1.9277,1.933,1.9362,1.9401,1.9449,1.9519,1.9564,1.9651,1.972,1.9788,1.9822,1.9828,1.9831,1.9845,1.984,1.9826,1.9834,1.9701,1.9828,1.9827,1.9827,1.9826,1.9826,1.9101,1.9149,1.9207,1.9274,1.9317,1.9366,1.9415,1.9451,1.9511,1.9585,1.9599,1.9674,1.9729,1.9821,1.9857,1.9916,1.9906,1.9926,1.9932,1.9937,1.9939,1.9815,1.9928,1.9928,1.9928,1.9928,1.9928,0,1.9206,1.9243,1.9304,1.9377,1.943,1.943,1.9488,1.9532,1.9598,1.9649,1.9705,1.9786,1.9852,1.9898,1.9965,2.0003,2.0007,2.002,2.0018,2.0025,1.9944,1.9925,2.0015,2.0015,2.0015,2.0015,2.0015,2.0015,1.9266,1.9348,1.937,1.9473,1.9509,1.9583,1.9616,1.9661,1.9702,1.9792,1.9847,1.9876,1.9925,1.9996,2.0056,2.0068,2.0092,2.0105,2.0117,2.004,2.0031,2.0022,2.0005,2.011,2.011,2.0193,2.0194,2.0194]}]]